�v������,���r���O(���x),�����t���O,���r���O(���x),�����t���O,��1(���x),�����t���O,��2���x),�����t���O,�������x,�����t���O
12/1/2003 0:00,23.5,1,71.1,1,0,0,17.4,1,16,1
12/1/2003 0:15,23.5,1,70.4,1,0,0,17.4,1,16,1
12/1/2003 0:30,23.5,1,70.4,1,0,0,17.4,1,16.1,1
12/1/2003 0:45,23.6,1,69.9,1,0,0,17.4,1,16.1,1
12/1/2003 1:00,23.6,1,69.9,1,0,0,17.4,1,16.2,1
12/1/2003 1:15,23.6,1,69.5,1,0,0,17.4,1,16.2,1
12/1/2003 1:30,23.7,1,69.2,1,0,0,17.4,1,16.3,1
12/1/2003 1:45,23.7,1,68.7,1,0,0,17.4,1,16.3,1
12/1/2003 2:00,23.7,1,68.6,1,0,0,17.4,1,16.3,1
12/1/2003 2:15,23.7,1,68.2,1,0,0,17.4,1,16.3,1
12/1/2003 2:30,23.8,1,67.9,1,0,0,17.4,1,16.2,1
12/1/2003 2:45,23.7,1,67.7,1,0,0,17.4,1,16.2,1
12/1/2003 3:00,23.9,1,67.3,1,0,0,17.4,1,16.2,1
12/1/2003 3:15,23.6,1,67.3,1,0,0,17.4,1,15.3,1
12/1/2003 3:30,23.7,1,69.6,1,0,0,17.3,1,15.5,1
12/1/2003 3:45,23.8,1,69.9,1,0,0,17.3,1,15.5,1
12/1/2003 4:00,23.7,1,70.6,1,0,0,17.4,1,15.6,1
12/1/2003 4:15,23.8,1,69.6,1,0,0,17.4,1,15.6,1
12/1/2003 4:30,23.8,1,69,1,0,0,17.4,1,15.6,1
12/1/2003 4:45,23.8,1,68.4,1,0,0,17.4,1,15.7,1
12/1/2003 5:00,23.8,1,68,1,0,0,17.3,1,15.7,1
12/1/2003 5:15,23.8,1,67.2,1,0,0,17.3,1,15.7,1
12/1/2003 5:30,23.6,1,67.6,1,0,0,17.3,1,15.7,1
12/1/2003 5:45,23.4,1,67.2,1,0,0,17.3,1,15.1,1
12/1/2003 6:00,23.3,1,66.8,1,0,0,17.3,1,15.2,1
12/1/2003 6:15,23.1,1,67.5,1,0,0,17.3,1,15.2,1
12/1/2003 6:30,22.8,1,67.5,1,0,0,17.3,1,14.9,1
12/1/2003 6:45,22.6,1,68.5,1,0,0,17.2,1,15.1,1
12/1/2003 7:00,22.7,1,69.8,1,0,0,17.2,1,15.1,1
12/1/2003 7:15,21.9,1,60,1,0,0,17.2,1,15.1,1
12/1/2003 7:30,21.9,1,61.2,1,0,0,17.1,1,15.2,1
12/1/2003 7:45,21.6,1,64.3,1,0,0,17.1,1,15.2,1
12/1/2003 8:00,21.3,1,66.5,1,0,0,17.1,1,14.4,1
12/1/2003 8:15,21.3,1,68.8,1,0,0,17.1,1,14.7,1
12/1/2003 8:30,21.2,1,69.1,1,0,0,17.1,1,14.8,1
12/1/2003 8:45,21.1,1,70,1,0,0,17,1,14.8,1
12/1/2003 9:00,21.1,1,70.3,1,0,0,17,1,14.9,1
12/1/2003 9:15,21,1,70.3,1,0,0,17,1,14.9,1
12/1/2003 9:30,21,1,70.6,1,0,0,16.9,1,14.9,1
12/1/2003 9:45,20.8,1,70.8,1,0,0,16.9,1,14.9,1
12/1/2003 10:00,20.7,1,71.1,1,0,0,16.9,1,15,1
12/1/2003 10:15,20.6,1,71.4,1,0,0,16.8,1,15,1
12/1/2003 10:30,20.6,1,71.4,1,0,0,16.8,1,15,1
12/1/2003 10:45,20.5,1,71.3,1,0,0,16.8,1,15,1
12/1/2003 11:00,20.4,1,71.7,1,0,0,16.8,1,15,1
12/1/2003 11:15,20.4,1,71.5,1,0,0,16.7,1,15.1,1
12/1/2003 11:30,20.3,1,71.9,1,0,0,16.7,1,15,1
12/1/2003 11:45,20.2,1,72,1,0,0,16.7,1,15,1
12/1/2003 12:00,20.1,1,71.4,1,0,0,16.7,1,15,1
12/1/2003 12:15,20.1,1,71.7,1,0,0,16.6,1,15.1,1
12/1/2003 12:30,20,1,71.5,1,0,0,16.6,1,15,1
12/1/2003 12:45,19.9,1,71.7,1,0,0,16.6,1,15,1
12/1/2003 13:00,19.8,1,72,1,0,0,16.5,1,15,1
12/1/2003 13:15,19.8,1,71.9,1,0,0,16.5,1,15,1
12/1/2003 13:30,19.7,1,71.6,1,0,0,16.5,1,15,1
12/1/2003 13:45,19.6,1,71.9,1,0,0,16.4,1,15,1
12/1/2003 14:00,19.6,1,71.8,1,0,0,16.4,1,15,1
12/1/2003 14:15,19.6,1,71.6,1,0,0,16.3,1,14.9,1
12/1/2003 14:30,19.5,1,71.7,1,0,0,16.3,1,14.9,1
12/1/2003 14:45,19.4,1,71.5,1,0,0,16.3,1,14.9,1
12/1/2003 15:00,19.4,1,71.6,1,0,0,16.2,1,14.9,1
12/1/2003 15:15,19.3,1,71.4,1,0,0,16.2,1,14.9,1
12/1/2003 15:30,19.3,1,71.2,1,0,0,16.1,1,14.9,1
12/1/2003 15:45,19.2,1,71.4,1,0,0,16.1,1,14.9,1
12/1/2003 16:00,19.1,1,71.1,1,0,0,16,1,14.9,1
12/1/2003 16:15,19.1,1,71,1,0,0,16,1,14.8,1
12/1/2003 16:30,19,1,70.9,1,0,0,15.9,1,14.8,1
12/1/2003 16:45,19,1,70.6,1,0,0,15.9,1,14.8,1
12/1/2003 17:00,18.9,1,70.7,1,0,0,15.8,1,14.8,1
12/1/2003 17:15,18.9,1,70.5,1,0,0,15.8,1,14.8,1
12/1/2003 17:30,18.8,1,71.1,1,0,0,15.7,1,14.8,1
12/1/2003 17:45,18.8,1,70.8,1,0,0,15.7,1,14.8,1
12/1/2003 18:00,18.8,1,71.1,1,0,0,15.6,1,14.5,1
12/1/2003 18:15,18.8,1,71.7,1,0,0,15.6,1,14.4,1
12/1/2003 18:30,18.7,1,71.5,1,0,0,15.5,1,14.4,1
12/1/2003 18:45,18.7,1,72.9,1,0,0,15.5,1,14.4,1
12/1/2003 19:00,18.7,1,71.9,1,0,0,15.4,1,14.4,1
12/1/2003 19:15,18.7,1,71.1,1,0,0,15.4,1,14.4,1
12/1/2003 19:30,17.3,1,69.8,1,0,0,15.4,1,14.5,1
12/1/2003 19:45,18.4,1,70.4,1,0,0,15.3,1,14.5,1
12/1/2003 20:00,18.7,1,75.9,1,0,0,15.3,1,14.5,1
12/1/2003 20:15,18.8,1,75,1,0,0,15.3,1,14.5,1
12/1/2003 20:30,18.8,1,74.8,1,0,0,15.3,1,14.5,1
12/1/2003 20:45,19.2,1,76.4,1,0,0,15.3,1,14.2,1
12/1/2003 21:00,19.8,1,75,1,0,0,15.2,1,14.2,1
12/1/2003 21:15,20.2,1,74.4,1,0,0,15.2,1,14.2,1
12/1/2003 21:30,20.5,1,72.7,1,0,0,15.2,1,14.2,1
12/1/2003 21:45,20.7,1,71.8,1,0,0,15.1,1,14.2,1
12/1/2003 22:00,20.5,1,70.6,1,0,0,15.1,1,14.2,1
12/1/2003 22:15,21,1,69.9,1,0,0,15.1,1,14.2,1
12/1/2003 22:30,21,1,70.2,1,0,0,15.1,1,14.1,1
12/1/2003 22:45,21.3,1,70.8,1,0,0,15.1,1,14,1
12/1/2003 23:00,21.3,1,70.4,1,0,0,15.1,1,14.1,1
12/1/2003 23:15,21.4,1,69.7,1,0,0,15.1,1,14.1,1
12/1/2003 23:30,21.6,1,70.1,1,0,0,15.1,1,14,1
12/1/2003 23:45,21.9,1,71.3,1,0,0,15.1,1,14,1
12/2/2003 0:00,21.9,1,71.7,1,0,0,15.1,1,14.1,1
12/2/2003 0:15,22.1,1,71.3,1,0,0,15.1,1,14.1,1
12/2/2003 0:30,22.3,1,69.9,1,0,0,15.1,1,14.1,1
12/2/2003 0:45,22.2,1,69.7,1,0,0,15.1,1,14.1,1
12/2/2003 1:00,22.2,1,69.1,1,0,0,15.1,1,14.1,1
12/2/2003 1:15,22.3,1,68.1,1,0,0,15.1,1,14.1,1
12/2/2003 1:30,22.3,1,67.8,1,0,0,15,1,14.2,1
12/2/2003 1:45,22.4,1,67.5,1,0,0,15,1,14.2,1
12/2/2003 2:00,22.4,1,67.1,1,0,0,15,1,14.2,1
12/2/2003 2:15,22.2,1,66.5,1,0,0,15,1,14,1
12/2/2003 2:30,22,1,66.3,1,0,0,14.9,1,14.1,1
12/2/2003 2:45,21.8,1,66,1,0,0,14.9,1,14.1,1
12/2/2003 3:00,21.3,1,67.2,1,0,0,14.9,1,14.1,1
12/2/2003 3:15,21,1,67.3,1,0,0,14.8,1,14.1,1
12/2/2003 3:30,20.9,1,67.4,1,0,0,14.8,1,14.2,1
12/2/2003 3:45,20.7,1,67.3,1,0,0,14.8,1,14.2,1
12/2/2003 4:00,20.6,1,67.6,1,0,0,14.8,1,14.2,1
12/2/2003 4:15,20.5,1,67.3,1,0,0,14.8,1,14.2,1
12/2/2003 4:30,20.3,1,67.3,1,0,0,14.8,1,14.2,1
12/2/2003 4:45,20.1,1,67.8,1,0,0,14.8,1,14.2,1
12/2/2003 5:00,20,1,67.5,1,0,0,14.7,1,14.2,1
12/2/2003 5:15,19.9,1,67.7,1,0,0,14.7,1,14.2,1
12/2/2003 5:30,19.8,1,67.7,1,0,0,14.7,1,14.2,1
12/2/2003 5:45,19.7,1,67.5,1,0,0,14.7,1,14.2,1
12/2/2003 6:00,19.6,1,67.8,1,0,0,14.7,1,14.2,1
12/2/2003 6:15,19.6,1,67.2,1,0,0,14.7,1,14.1,1
12/2/2003 6:30,19.5,1,67.7,1,0,0,14.7,1,14.1,1
12/2/2003 6:45,19.5,1,69.8,1,0,0,14.7,1,14.1,1
12/2/2003 7:00,19.6,1,70.2,1,0,0,14.7,1,14.1,1
12/2/2003 7:15,19.5,1,71.2,1,0,0,14.8,1,14.1,1
12/2/2003 7:30,19,1,59.2,1,0,0,14.9,1,14,1
12/2/2003 7:45,17.7,1,55.1,1,0,0,14.8,1,13.6,1
12/2/2003 8:00,17.4,1,55,1,0,0,14.8,1,13.4,1
12/2/2003 8:15,17.1,1,57.3,1,0,0,14.8,1,13.5,1
12/2/2003 8:30,16.4,1,58.4,1,0,0,14.7,1,13.9,1
12/2/2003 8:45,16,1,59.9,1,0,0,14.7,1,13.9,1
12/2/2003 9:00,16.4,1,61.8,1,0,0,14.8,1,13.8,1
12/2/2003 9:15,16.6,1,63.6,1,0,0,15,1,13.8,1
12/2/2003 9:30,16.8,1,64.3,1,0,0,15.2,1,13.8,1
12/2/2003 9:45,17,1,65.1,1,0,0,15.5,1,13.8,1
12/2/2003 10:00,17.2,1,65.1,1,0,0,15.8,1,13.8,1
12/2/2003 10:15,17.4,1,65.2,1,0,0,16.1,1,13.9,1
12/2/2003 10:30,17.6,1,65.6,1,0,0,16.4,1,13.9,1
12/2/2003 10:45,17.8,1,65.8,1,0,0,16.7,1,13.9,1
12/2/2003 11:00,17.9,1,65.9,1,0,0,17,1,14,1
12/2/2003 11:15,18.1,1,65.7,1,0,0,17.3,1,14,1
12/2/2003 11:30,18.3,1,66,1,0,0,17.6,1,14,1
12/2/2003 11:45,18.5,1,65.3,1,0,0,17.9,1,14.1,1
12/2/2003 12:00,18.6,1,65.4,1,0,0,18.1,1,14.1,1
12/2/2003 12:15,18.7,1,65.3,1,0,0,18.4,1,14.2,1
12/2/2003 12:30,18.9,1,64.1,1,0,0,18.6,1,14.2,1
12/2/2003 12:45,19,1,64.9,1,0,0,18.8,1,14.3,1
12/2/2003 13:00,19.2,1,65.1,1,0,0,19,1,14.4,1
12/2/2003 13:15,19.3,1,64.7,1,0,0,19.2,1,14.4,1
12/2/2003 13:30,19.4,1,63.7,1,0,0,19.4,1,14.4,1
12/2/2003 13:45,19.5,1,62.8,1,0,0,19.6,1,14.5,1
12/2/2003 14:00,19.7,1,62.5,1,0,0,19.7,1,14.6,1
12/2/2003 14:15,20.1,1,62,1,0,0,19.9,1,14.6,1
12/2/2003 14:30,20.4,1,61.5,1,0,0,20.1,1,14.7,1
12/2/2003 14:45,20.6,1,62,1,0,0,20.2,1,14.8,1
12/2/2003 15:00,20.7,1,61.7,1,0,0,20.4,1,14.8,1
12/2/2003 15:15,21,1,61.6,1,0,0,20.5,1,14.9,1
12/2/2003 15:30,21.2,1,62,1,0,0,20.6,1,14.9,1
12/2/2003 15:45,21.3,1,62.4,1,0,0,20.6,1,15,1
12/2/2003 16:00,21.4,1,62.5,1,0,0,20.6,1,15.1,1
12/2/2003 16:15,21.4,1,62.5,1,0,0,20.5,1,15.1,1
12/2/2003 16:30,21.4,1,61.7,1,0,0,20.4,1,15.2,1
12/2/2003 16:45,21.3,1,61.3,1,0,0,20.3,1,14.4,1
12/2/2003 17:00,21.4,1,61.5,1,0,0,20.2,1,14.5,1
12/2/2003 17:15,20.9,1,56.2,1,0,0,20,1,14.5,1
12/2/2003 17:30,20.7,1,53.8,1,0,0,19.9,1,14.7,1
12/2/2003 17:45,21.1,1,59.4,1,0,0,19.7,1,14.5,1
12/2/2003 18:00,21.2,1,60.9,1,0,0,19.6,1,14.6,1
12/2/2003 18:15,21.2,1,60.4,1,0,0,19.5,1,14.7,1
12/2/2003 18:30,21.1,1,60.5,1,0,0,19.4,1,14.8,1
12/2/2003 18:45,21.1,1,60,1,0,0,19.3,1,14.8,1
12/2/2003 19:00,20.7,1,57.2,1,0,0,19.1,1,14.8,1
12/2/2003 19:15,20.8,1,57.2,1,0,0,19,1,14.8,1
12/2/2003 19:30,20.7,1,57.3,1,0,0,18.9,1,14.8,1
12/2/2003 19:45,20.6,1,57.5,1,0,0,18.8,1,14.8,1
12/2/2003 20:00,20.6,1,57.7,1,0,0,18.7,1,14.9,1
12/2/2003 20:15,20.4,1,57.5,1,0,0,18.5,1,14.9,1
12/2/2003 20:30,20.5,1,57.7,1,0,0,18.4,1,15,1
12/2/2003 20:45,20.6,1,57.8,1,0,0,18.3,1,15,1
12/2/2003 21:00,21.1,1,59.9,1,0,0,18.2,1,15,1
12/2/2003 21:15,21.4,1,61.4,1,0,0,18.1,1,15,1
12/2/2003 21:30,21.5,1,60.3,1,0,0,18.1,1,14.6,1
12/2/2003 21:45,21.8,1,58.6,1,0,0,18,1,14.7,1
12/2/2003 22:00,21.8,1,58.6,1,0,0,17.9,1,14.8,1
12/2/2003 22:15,22,1,62.1,1,0,0,17.8,1,14.8,1
12/2/2003 22:30,22.2,1,62.3,1,0,0,17.8,1,14.8,1
12/2/2003 22:45,22.4,1,62.9,1,0,0,17.7,1,14.8,1
12/2/2003 23:00,22.5,1,60.9,1,0,0,17.6,1,14.9,1
12/2/2003 23:15,22.4,1,59.7,1,0,0,17.5,1,14.9,1
12/2/2003 23:30,22.7,1,63,1,0,0,17.5,1,14.9,1
12/2/2003 23:45,22.9,1,64.3,1,0,0,17.4,1,14.9,1
12/3/2003 0:00,23,1,63.1,1,0,0,17.3,1,14.9,1
12/3/2003 0:15,22.9,1,61.9,1,0,0,17.2,1,14.9,1
12/3/2003 0:30,22.8,1,59.2,1,0,0,17.1,1,14.5,1
12/3/2003 0:45,22.6,1,58.4,1,0,0,17,1,14.5,1
12/3/2003 1:00,22.4,1,57.4,1,0,0,16.9,1,14.6,1
12/3/2003 1:15,22.2,1,57.2,1,0,0,16.8,1,14.7,1
12/3/2003 1:30,22,1,57.2,1,0,0,16.7,1,14.6,1
12/3/2003 1:45,21.8,1,57,1,0,0,16.7,1,14.6,1
12/3/2003 2:00,21.7,1,56.7,1,0,0,16.6,1,14.6,1
12/3/2003 2:15,21.5,1,56.3,1,0,0,16.5,1,14.6,1
12/3/2003 2:30,21.3,1,56.1,1,0,0,16.4,1,14.6,1
12/3/2003 2:45,21.2,1,56,1,0,0,16.3,1,14.7,1
12/3/2003 3:00,21.1,1,56.5,1,0,0,16.3,1,14.5,1
12/3/2003 3:15,20.9,1,56.4,1,0,0,16.2,1,14.6,1
12/3/2003 3:30,20.8,1,55.8,1,0,0,16.1,1,14.5,1
12/3/2003 3:45,20.6,1,56.5,1,0,0,16,1,14.5,1
12/3/2003 4:00,20.5,1,56.6,1,0,0,15.9,1,14.4,1
12/3/2003 4:15,20.3,1,56.3,1,0,0,15.9,1,14.2,1
12/3/2003 4:30,20.2,1,56,1,0,0,15.8,1,14.2,1
12/3/2003 4:45,20.1,1,56.2,1,0,0,15.7,1,14.3,1
12/3/2003 5:00,20,1,56.3,1,0,0,15.6,1,14.3,1
12/3/2003 5:15,19.9,1,56.4,1,0,0,15.5,1,14.4,1
12/3/2003 5:30,19.6,1,56,1,0,0,15.5,1,14.2,1
12/3/2003 5:45,19.6,1,56.5,1,0,0,15.4,1,13.9,1
12/3/2003 6:00,19.7,1,56.9,1,0,0,15.3,1,13.9,1
12/3/2003 6:15,19.2,1,60.1,1,0,0,15.2,1,13.9,1
12/3/2003 6:30,19.4,1,61.5,1,0,0,15.1,1,13.8,1
12/3/2003 6:45,19.5,1,64.9,1,0,0,15,1,13.8,1
12/3/2003 7:00,19.5,1,66,1,0,0,15,1,13.6,1
12/3/2003 7:15,19.5,1,65.4,1,0,0,14.9,1,13.4,1
12/3/2003 7:30,19.2,1,62.9,1,0,0,14.7,1,13.5,1
12/3/2003 7:45,17.9,1,49.5,1,0,0,14.5,1,13.5,1
12/3/2003 8:00,17.8,1,52.6,1,0,0,14.4,1,13.6,1
12/3/2003 8:15,18.1,1,49.8,1,0,0,14.4,1,13.7,1
12/3/2003 8:30,17.5,1,52.5,1,0,0,14.4,1,13.7,1
12/3/2003 8:45,17.2,1,54.4,1,0,0,14.4,1,13.6,1
12/3/2003 9:00,17,1,55.3,1,0,0,14.4,1,13.7,1
12/3/2003 9:15,16.8,1,56.3,1,0,0,14.4,1,13.7,1
12/3/2003 9:30,16.8,1,56.5,1,0,0,14.5,1,13.8,1
12/3/2003 9:45,16.6,1,57.3,1,0,0,14.5,1,13.8,1
12/3/2003 10:00,16.5,1,57.9,1,0,0,14.5,1,13.8,1
12/3/2003 10:15,16.6,1,57.8,1,0,0,14.6,1,13.8,1
12/3/2003 10:30,16.9,1,58.3,1,0,0,14.8,1,13.9,1
12/3/2003 10:45,17,1,58.4,1,0,0,15.1,1,13.9,1
12/3/2003 11:00,17,1,58.1,1,0,0,15.3,1,13.9,1
12/3/2003 11:15,17,1,58.1,1,0,0,15.5,1,13.9,1
12/3/2003 11:30,17.1,1,59,1,0,0,15.6,1,13.9,1
12/3/2003 11:45,17.1,1,58.7,1,0,0,15.8,1,14,1
12/3/2003 12:00,17.1,1,58.8,1,0,0,15.9,1,14,1
12/3/2003 12:15,17.1,1,59.2,1,0,0,16,1,14,1
12/3/2003 12:30,17.1,1,58.5,1,0,0,16.2,1,14,1
12/3/2003 12:45,17.1,1,56.5,1,0,0,16.3,1,14.1,1
12/3/2003 13:00,17.2,1,56.1,1,0,0,16.4,1,14.1,1
12/3/2003 13:15,17.2,1,56,1,0,0,16.5,1,14.1,1
12/3/2003 13:30,17.2,1,56.3,1,0,0,16.6,1,14.1,1
12/3/2003 13:45,17.2,1,56.2,1,0,0,16.7,1,14.2,1
12/3/2003 14:00,17.7,1,56.5,1,0,0,16.7,1,14.2,1
12/3/2003 14:15,18.2,1,56.3,1,0,0,16.7,1,14.3,1
12/3/2003 14:30,17.2,1,50.6,1,0,0,16.8,1,14.3,1
12/3/2003 14:45,18.1,1,54.6,1,0,0,16.8,1,14.3,1
12/3/2003 15:00,18.4,1,54.8,1,0,0,16.9,1,14.3,1
12/3/2003 15:15,18.7,1,56.1,1,0,0,16.9,1,14.1,1
12/3/2003 15:30,18.8,1,56.4,1,0,0,17,1,14.1,1
12/3/2003 15:45,18.9,1,56.7,1,0,0,17,1,14.2,1
12/3/2003 16:00,18.9,1,56.7,1,0,0,16.9,1,14.2,1
12/3/2003 16:15,18.9,1,56.7,1,0,0,16.9,1,14.2,1
12/3/2003 16:30,18.9,1,56.9,1,0,0,16.8,1,14.3,1
12/3/2003 16:45,18.9,1,56.6,1,0,0,16.7,1,14.3,1
12/3/2003 17:00,18.8,1,56.3,1,0,0,16.6,1,14.3,1
12/3/2003 17:15,18.8,1,56.5,1,0,0,16.5,1,14.2,1
12/3/2003 17:30,18.7,1,56.5,1,0,0,16.4,1,14.2,1
12/3/2003 17:45,18.6,1,55.8,1,0,0,16.3,1,14.1,1
12/3/2003 18:00,18.8,1,57,1,0,0,16.2,1,14.1,1
12/3/2003 18:15,18.9,1,57.5,1,0,0,16.1,1,14.1,1
12/3/2003 18:30,18.8,1,58.9,1,0,0,16,1,14.1,1
12/3/2003 18:45,18.7,1,59.8,1,0,0,15.9,1,14,1
12/3/2003 19:00,18.2,1,57,1,0,0,15.8,1,14.2,1
12/3/2003 19:15,18.1,1,55.5,1,0,0,15.7,1,14.1,1
12/3/2003 19:30,18.7,1,61.8,1,0,0,15.6,1,14.1,1
12/3/2003 19:45,19,1,63.3,1,0,0,15.5,1,14.1,1
12/3/2003 20:00,19.1,1,65.5,1,0,0,15.4,1,14,1
12/3/2003 20:15,19.1,1,65.5,1,0,0,15.3,1,14,1
12/3/2003 20:30,19.1,1,61.9,1,0,0,15.2,1,14,1
12/3/2003 20:45,19.4,1,63.2,1,0,0,15.1,1,14,1
12/3/2003 21:00,19.7,1,63.3,1,0,0,15,1,13.9,1
12/3/2003 21:15,20.1,1,62.6,1,0,0,14.9,1,13.9,1
12/3/2003 21:30,20.4,1,62.9,1,0,0,14.9,1,13.8,1
12/3/2003 21:45,20.6,1,61.6,1,0,0,14.8,1,13.8,1
12/3/2003 22:00,20.9,1,61.4,1,0,0,14.7,1,13.7,1
12/3/2003 22:15,21.2,1,60.3,1,0,0,14.6,1,13.7,1
12/3/2003 22:30,21.3,1,60,1,0,0,14.5,1,13.6,1
12/3/2003 22:45,21.3,1,58.7,1,0,0,14.5,1,13.7,1
12/3/2003 23:00,21.4,1,58.7,1,0,0,14.4,1,13.5,1
12/3/2003 23:15,21.4,1,60.2,1,0,0,14.3,1,13.5,1
12/3/2003 23:30,21.6,1,61.7,1,0,0,14.3,1,13.5,1
12/3/2003 23:45,21.8,1,61.8,1,0,0,14.3,1,13.4,1
12/4/2003 0:00,21.9,1,64.6,1,0,0,14.2,1,13.5,1
12/4/2003 0:15,22,1,64.7,1,0,0,14.2,1,13.5,1
12/4/2003 0:30,21.6,1,61.8,1,0,0,14.1,1,13.3,1
12/4/2003 0:45,21.9,1,61.1,1,0,0,14,1,13.2,1
12/4/2003 1:00,22.1,1,60.1,1,0,0,13.9,1,13.2,1
12/4/2003 1:15,22.1,1,59.4,1,0,0,13.9,1,13.2,1
12/4/2003 1:30,22.2,1,58.5,1,0,0,13.8,1,13.2,1
12/4/2003 1:45,22.1,1,58.6,1,0,0,13.7,1,13.2,1
12/4/2003 2:00,22.1,1,58,1,0,0,13.6,1,13.2,1
12/4/2003 2:15,21.8,1,56.4,1,0,0,13.4,1,13.3,1
12/4/2003 2:30,21.5,1,56.1,1,0,0,13.3,1,13.1,1
12/4/2003 2:45,21.2,1,55.9,1,0,0,13.2,1,13,1
12/4/2003 3:00,20.9,1,55.9,1,0,0,13.1,1,13,1
12/4/2003 3:15,20.7,1,55.7,1,0,0,13,1,13,1
12/4/2003 3:30,20.5,1,55.5,1,0,0,12.9,1,13,1
12/4/2003 3:45,20.2,1,55.7,1,0,0,12.8,1,13,1
12/4/2003 4:00,20,1,55.4,1,0,0,12.7,1,13,1
12/4/2003 4:15,19.8,1,55.3,1,0,0,12.6,1,12.9,1
12/4/2003 4:30,19.6,1,55.3,1,0,0,12.5,1,12.9,1
12/4/2003 4:45,19.5,1,55.2,1,0,0,12.4,1,12.8,1
12/4/2003 5:00,19.3,1,55.2,1,0,0,12.3,1,12.8,1
12/4/2003 5:15,19.1,1,55.2,1,0,0,12.2,1,12.8,1
12/4/2003 5:30,18.8,1,55.2,1,0,0,12.1,1,12.9,1
12/4/2003 5:45,18.8,1,55.6,1,0,0,12.1,1,12.7,1
12/4/2003 6:00,18.7,1,56,1,0,0,12,1,12.6,1
12/4/2003 6:15,18.4,1,56.1,1,0,0,11.9,1,12.6,1
12/4/2003 6:30,18.3,1,58.6,1,0,0,11.8,1,12.4,1
12/4/2003 6:45,18.1,1,59.8,1,0,0,11.7,1,12.7,1
12/4/2003 7:00,18.2,1,61.6,1,0,0,11.7,1,12.4,1
12/4/2003 7:15,17.9,1,63.2,1,0,0,11.6,1,12.6,1
12/4/2003 7:30,17.8,1,62.5,1,0,0,11.7,1,12.7,1
12/4/2003 7:45,17.7,1,61.3,1,0,0,11.7,1,12.4,1
12/4/2003 8:00,17.2,1,57.9,1,0,0,11.8,1,12.6,1
12/4/2003 8:15,16.5,1,51,1,0,0,12,1,12.7,1
12/4/2003 8:30,16.4,1,49.8,1,0,0,12.1,1,12.9,1
12/4/2003 8:45,16.2,1,48.1,1,0,0,12.3,1,12.7,1
12/4/2003 9:00,16.4,1,52.7,1,0,0,12.3,1,12.7,1
12/4/2003 9:15,16.7,1,54.2,1,0,0,12.5,1,12.7,1
12/4/2003 9:30,16.9,1,55.5,1,0,0,12.6,1,12.8,1
12/4/2003 9:45,17.1,1,56.8,1,0,0,12.8,1,12.8,1
12/4/2003 10:00,17.3,1,57.5,1,0,0,13.1,1,12.8,1
12/4/2003 10:15,17.4,1,58.3,1,0,0,13.3,1,12.8,1
12/4/2003 10:30,17.6,1,58.6,1,0,0,13.6,1,12.9,1
12/4/2003 10:45,17.8,1,58.5,1,0,0,13.9,1,12.9,1
12/4/2003 11:00,17.9,1,58,1,0,0,14.1,1,12.9,1
12/4/2003 11:15,18.1,1,58.2,1,0,0,14.4,1,13,1
12/4/2003 11:30,18.3,1,57.9,1,0,0,14.7,1,13.1,1
12/4/2003 11:45,18.4,1,57.7,1,0,0,15,1,13.1,1
12/4/2003 12:00,18.6,1,57.6,1,0,0,15.3,1,13.1,1
12/4/2003 12:15,18.8,1,58.5,1,0,0,15.7,1,13.1,1
12/4/2003 12:30,18.9,1,58.7,1,0,0,16,1,13.2,1
12/4/2003 12:45,19.1,1,58.9,1,0,0,16.2,1,13.2,1
12/4/2003 13:00,19.3,1,58.9,1,0,0,16.5,1,13.2,1
12/4/2003 13:15,19.5,1,58.9,1,0,0,16.8,1,13.3,1
12/4/2003 13:30,19.6,1,58.2,1,0,0,17,1,13.3,1
12/4/2003 13:45,19.8,1,58.2,1,0,0,17.2,1,13.3,1
12/4/2003 14:00,19.9,1,57.9,1,0,0,17.4,1,13.4,1
12/4/2003 14:15,20.1,1,57.8,1,0,0,17.6,1,13.4,1
12/4/2003 14:30,20.2,1,57.8,1,0,0,17.7,1,13.4,1
12/4/2003 14:45,20.3,1,57.6,1,0,0,17.9,1,13.5,1
12/4/2003 15:00,20.4,1,57.7,1,0,0,18,1,13.5,1
12/4/2003 15:15,20.5,1,57.6,1,0,0,18,1,13.6,1
12/4/2003 15:30,20.6,1,57.4,1,0,0,18.1,1,13.6,1
12/4/2003 15:45,20.6,1,56.9,1,0,0,18.1,1,13.6,1
12/4/2003 16:00,20.5,1,56.4,1,0,0,18.1,1,13.7,1
12/4/2003 16:15,20.4,1,55.8,1,0,0,18,1,13.6,1
12/4/2003 16:30,20.3,1,55.5,1,0,0,17.8,1,13.7,1
12/4/2003 16:45,20.2,1,55.2,1,0,0,17.7,1,13.7,1
12/4/2003 17:00,20,1,55.2,1,0,0,17.6,1,13.6,1
12/4/2003 17:15,19.9,1,55.2,1,0,0,17.5,1,13.6,1
12/4/2003 17:30,18.5,1,52.2,1,0,0,17.4,1,13.4,1
12/4/2003 17:45,18.3,1,52.5,1,0,0,17.3,1,13.3,1
12/4/2003 18:00,19.2,1,52.1,1,0,0,17.1,1,13.3,1
12/4/2003 18:15,19.2,1,52.6,1,0,0,17,1,13.3,1
12/4/2003 18:30,19.2,1,53.1,1,0,0,16.9,1,13.2,1
12/4/2003 18:45,19.2,1,53.3,1,0,0,16.7,1,13.2,1
12/4/2003 19:00,19.1,1,53.6,1,0,0,16.6,1,13.1,1
12/4/2003 19:15,18.7,1,51,1,0,0,16.5,1,13.2,1
12/4/2003 19:30,18.7,1,53.7,1,0,0,16.3,1,13.1,1
12/4/2003 19:45,18.9,1,53.3,1,0,0,16.2,1,13,1
12/4/2003 20:00,19,1,55.5,1,0,0,16.1,1,13,1
12/4/2003 20:15,19.2,1,62.8,1,0,0,15.9,1,13.1,1
12/4/2003 20:30,19.3,1,66.9,1,0,0,15.8,1,13.1,1
12/4/2003 20:45,19.4,1,68.7,1,0,0,15.6,1,13.1,1
12/4/2003 21:00,19.2,1,65.4,1,0,0,15.5,1,13.1,1
12/4/2003 21:15,19.3,1,66.1,1,0,0,15.5,1,13.1,1
12/4/2003 21:30,19.8,1,67.9,1,0,0,15.4,1,13.2,1
12/4/2003 21:45,20.2,1,67.1,1,0,0,15.3,1,13.2,1
12/4/2003 22:00,20.5,1,64,1,0,0,15.1,1,13.2,1
12/4/2003 22:15,20.9,1,64.6,1,0,0,15.1,1,13.2,1
12/4/2003 22:30,21,1,63.9,1,0,0,15,1,13.1,1
12/4/2003 22:45,21.3,1,65.7,1,0,0,15,1,13,1
12/4/2003 23:00,21.4,1,63.9,1,0,0,14.9,1,13,1
12/4/2003 23:15,21.4,1,62,1,0,0,14.8,1,13,1
12/4/2003 23:30,21.6,1,62.7,1,0,0,14.8,1,13,1
12/4/2003 23:45,21.8,1,61.7,1,0,0,14.7,1,13,1
12/5/2003 0:00,21.8,1,60.6,1,0,0,14.6,1,13.1,1
12/5/2003 0:15,21.9,1,59.8,1,0,0,14.5,1,13.1,1
12/5/2003 0:30,21.9,1,59,1,0,0,14.4,1,13,1
12/5/2003 0:45,22,1,58.4,1,0,0,14.3,1,13,1
12/5/2003 1:00,22,1,57.6,1,0,0,14.2,1,13,1
12/5/2003 1:15,22.1,1,57,1,0,0,14.1,1,13,1
12/5/2003 1:30,22.1,1,56.6,1,0,0,14,1,13,1
12/5/2003 1:45,22.1,1,56.6,1,0,0,13.9,1,12.9,1
12/5/2003 2:00,22.1,1,56.1,1,0,0,13.9,1,13,1
12/5/2003 2:15,22.3,1,57.8,1,0,0,13.8,1,13,1
12/5/2003 2:30,22.3,1,59.9,1,0,0,13.7,1,12.6,1
12/5/2003 2:45,22.2,1,58.6,1,0,0,13.7,1,12.6,1
12/5/2003 3:00,21.9,1,57.3,1,0,0,13.6,1,12.6,1
12/5/2003 3:15,21.6,1,56.8,1,0,0,13.5,1,12.5,1
12/5/2003 3:30,21.3,1,56.5,1,0,0,13.4,1,12.5,1
12/5/2003 3:45,21.1,1,56.2,1,0,0,13.4,1,12.5,1
12/5/2003 4:00,20.9,1,55.7,1,0,0,13.3,1,12.5,1
12/5/2003 4:15,20.6,1,55.4,1,0,0,13.2,1,12.5,1
12/5/2003 4:30,20.4,1,55.2,1,0,0,13.2,1,12.4,1
12/5/2003 4:45,20.2,1,55,1,0,0,13.1,1,12.5,1
12/5/2003 5:00,20,1,54.9,1,0,0,13,1,12.4,1
12/5/2003 5:15,19.8,1,54.6,1,0,0,13,1,12.4,1
12/5/2003 5:30,19.7,1,54.6,1,0,0,12.9,1,12.4,1
12/5/2003 5:45,19.5,1,54.5,1,0,0,12.8,1,12.4,1
12/5/2003 6:00,19.2,1,54.7,1,0,0,12.8,1,12.4,1
12/5/2003 6:15,18.5,1,53,1,0,0,12.7,1,12.6,1
12/5/2003 6:30,16.4,1,51.6,1,0,0,12.7,1,12.6,1
12/5/2003 6:45,17.2,1,53.2,1,0,0,12.6,1,12.4,1
12/5/2003 7:00,17.8,1,59.9,1,0,0,12.6,1,12.3,1
12/5/2003 7:15,17.8,1,60.6,1,0,0,12.5,1,12.3,1
12/5/2003 7:30,17.9,1,61.2,1,0,0,12.4,1,12.2,1
12/5/2003 7:45,18.1,1,61.2,1,0,0,12.4,1,12.2,1
12/5/2003 8:00,17.9,1,61.5,1,0,0,12.1,1,12.3,1
12/5/2003 8:15,17.8,1,60.7,1,0,0,11.8,1,12.4,1
12/5/2003 8:30,16.6,1,48.6,1,0,0,11.6,1,12.3,1
12/5/2003 8:45,16.5,1,50.2,1,0,0,11.6,1,12.5,1
12/5/2003 9:00,16.7,1,52.7,1,0,0,11.7,1,12,1
12/5/2003 9:15,16.7,1,54.2,1,0,0,11.7,1,11.9,1
12/5/2003 9:30,16.7,1,55.5,1,0,0,11.7,1,12,1
12/5/2003 9:45,16.7,1,56.1,1,0,0,11.8,1,12,1
12/5/2003 10:00,16.7,1,56.7,1,0,0,11.8,1,12.1,1
12/5/2003 10:15,16.7,1,57.2,1,0,0,11.8,1,12.1,1
12/5/2003 10:30,16.7,1,57.7,1,0,0,11.9,1,12.2,1
12/5/2003 10:45,16.7,1,58,1,0,0,11.9,1,12.2,1
12/5/2003 11:00,16.6,1,58.1,1,0,0,11.9,1,12.2,1
12/5/2003 11:15,16.5,1,58.1,1,0,0,11.9,1,12.3,1
12/5/2003 11:30,16.5,1,58.2,1,0,0,11.9,1,12.3,1
12/5/2003 11:45,16.4,1,57.9,1,0,0,11.9,1,12.4,1
12/5/2003 12:00,16.4,1,57.9,1,0,0,11.9,1,12.4,1
12/5/2003 12:15,16.3,1,57.9,1,0,0,11.9,1,12.4,1
12/5/2003 12:30,16.2,1,57.8,1,0,0,11.9,1,12.4,1
12/5/2003 12:45,16.2,1,57.9,1,0,0,11.9,1,12.4,1
12/5/2003 13:00,16.1,1,57.7,1,0,0,11.9,1,12.4,1
12/5/2003 13:15,16.1,1,58.1,1,0,0,11.9,1,12.4,1
12/5/2003 13:30,16,1,58.2,1,0,0,12,1,12.4,1
12/5/2003 13:45,15.5,1,55.4,1,0,0,12,1,12.5,1
12/5/2003 14:00,15.9,1,57.7,1,0,0,12,1,12.5,1
12/5/2003 14:15,15.9,1,58.2,1,0,0,12,1,12.5,1
12/5/2003 14:30,15.9,1,57.9,1,0,0,12,1,12.5,1
12/5/2003 14:45,16.1,1,58.1,1,0,0,12,1,12.8,1
12/5/2003 15:00,16.1,1,58.4,1,0,0,12,1,12.7,1
12/5/2003 15:15,16,1,58.3,1,0,0,12,1,12.6,1
12/5/2003 15:30,16,1,58.1,1,0,0,12,1,12.6,1
12/5/2003 15:45,16,1,58.4,1,0,0,12,1,12.7,1
12/5/2003 16:00,16,1,58.5,1,0,0,12,1,12.6,1
12/5/2003 16:15,16,1,59.8,1,0,0,12,1,12.6,1
12/5/2003 16:30,16.1,1,60.8,1,0,0,12,1,12.6,1
12/5/2003 16:45,15.4,1,57.4,1,0,0,12,1,12.7,1
12/5/2003 17:00,15.8,1,58.9,1,0,0,12,1,12.6,1
12/5/2003 17:15,16,1,60.6,1,0,0,12,1,12.6,1
12/5/2003 17:30,16.4,1,67.5,1,0,0,12,1,12.4,1
12/5/2003 17:45,16.5,1,68.8,1,0,0,12,1,12.3,1
12/5/2003 18:00,16.4,1,66.9,1,0,0,12,1,12.3,1
12/5/2003 18:15,16.5,1,66.6,1,0,0,12,1,12.3,1
12/5/2003 18:30,16.6,1,66.6,1,0,0,12,1,12.4,1
12/5/2003 18:45,16.5,1,66.2,1,0,0,12,1,12.2,1
12/5/2003 19:00,16.7,1,66,1,0,0,12,1,12.5,1
12/5/2003 19:15,16.8,1,67.3,1,0,0,12,1,12.3,1
12/5/2003 19:30,16.7,1,66.8,1,0,0,12,1,12.3,1
12/5/2003 19:45,16.8,1,67.5,1,0,0,12,1,12.4,1
12/5/2003 20:00,17,1,69.7,1,0,0,12,1,12.4,1
12/5/2003 20:15,17,1,69.7,1,0,0,12,1,12.4,1
12/5/2003 20:30,17.1,1,68.8,1,0,0,12,1,12.4,1
12/5/2003 20:45,17,1,68.2,1,0,0,12,1,12.4,1
12/5/2003 21:00,17.2,1,68.9,1,0,0,12,1,12.4,1
12/5/2003 21:15,17.2,1,69.3,1,0,0,12,1,12.3,1
12/5/2003 21:30,17.1,1,67.4,1,0,0,12,1,12.3,1
12/5/2003 21:45,17.1,1,68.1,1,0,0,12,1,12.4,1
12/5/2003 22:00,17,1,67.6,1,0,0,12,1,12.2,1
12/5/2003 22:15,17.1,1,67.1,1,0,0,12,1,12.3,1
12/5/2003 22:30,17,1,67.6,1,0,0,12,1,12.3,1
12/5/2003 22:45,17.1,1,66.8,1,0,0,12.1,1,12.2,1
12/5/2003 23:00,17.2,1,67.4,1,0,0,12.1,1,12.3,1
12/5/2003 23:15,17.3,1,68.6,1,0,0,12.2,1,12.2,1
12/5/2003 23:30,17.4,1,68.6,1,0,0,12.2,1,12.3,1
12/5/2003 23:45,17.5,1,70.9,1,0,0,12.2,1,12.3,1
12/6/2003 0:00,17.5,1,71.9,1,0,0,12.3,1,12.3,1
12/6/2003 0:15,17.4,1,70.5,1,0,0,12.3,1,12.3,1
12/6/2003 0:30,17.4,1,69.7,1,0,0,12.3,1,12.3,1
12/6/2003 0:45,17.3,1,68.4,1,0,0,12.3,1,12.3,1
12/6/2003 1:00,17.2,1,67.8,1,0,0,12.2,1,12.3,1
12/6/2003 1:15,17.2,1,66.9,1,0,0,12.2,1,12.4,1
12/6/2003 1:30,17.1,1,66.3,1,0,0,12.2,1,12.4,1
12/6/2003 1:45,17,1,65.6,1,0,0,12.2,1,12.3,1
12/6/2003 2:00,16.9,1,65.3,1,0,0,12.2,1,12.3,1
12/6/2003 2:15,16.9,1,65,1,0,0,12.2,1,12.3,1
12/6/2003 2:30,16.8,1,64.4,1,0,0,12.2,1,12.2,1
12/6/2003 2:45,16.7,1,64.2,1,0,0,12.2,1,12.2,1
12/6/2003 3:00,16.7,1,64.1,1,0,0,12.2,1,12.2,1
12/6/2003 3:15,16.6,1,63.8,1,0,0,12.2,1,12.2,1
12/6/2003 3:30,16.5,1,63.5,1,0,0,12.2,1,12.2,1
12/6/2003 3:45,16.5,1,62.9,1,0,0,12.2,1,12.2,1
12/6/2003 4:00,16.4,1,63.3,1,0,0,12.1,1,12.1,1
12/6/2003 4:15,16.3,1,62.9,1,0,0,12.1,1,12.1,1
12/6/2003 4:30,16.3,1,62.8,1,0,0,12.1,1,12.1,1
12/6/2003 4:45,16.2,1,62.7,1,0,0,12.1,1,12.1,1
12/6/2003 5:00,16.1,1,62.8,1,0,0,12,1,12.1,1